When you browse on this site, cookies collect data to enhance your experience and personalize the content and advertising you see.
Visit our Privacy Policy to learn more. By continuing to use the site, you agree to this use of cookies and data.

Hourly Weather Ischgl

Today, 5 August, Wednesday

Time Temperature Precipitation Wind Pressure Humidity
00:00 0°C° 0 mm 1 mps 572 mmHg 95%
01:00 0°C° 0 mm 1 mps 572 mmHg 94%
02:00 0°C° 0 mm 1 mps 572 mmHg 94%
03:00 0°C° 0 mm 1 mps 572 mmHg 94%
04:00 0°C° 0 mm 1 mps 572 mmHg 93%
05:00 +1°C° 0 mm 1 mps 573 mmHg 90%
06:00 +2°C° 0 mm 1 mps 573 mmHg 88%
07:00 +4°C° 0 mm 1 mps 574 mmHg 85%
08:00 +5°C° 0 mm 1 mps 575 mmHg 78%
09:00 +7°C° 0 mm 1 mps 576 mmHg 71%
10:00 +9°C° 0 mm 1 mps 577 mmHg 65%
11:00 +11°C° 0 mm 1 mps 577 mmHg 60%
12:00 +12°C° 0 mm 1 mps 578 mmHg 55%
13:00 +14°C° 0 mm 1 mps 578 mmHg 51%
14:00 +14°C° 0 mm 2 mps 578 mmHg 52%
15:00 +14°C° 0 mm 2 mps 578 mmHg 53%
16:00 +14°C° 0 mm 2 mps 579 mmHg 54%
17:00 +13°C° 0 mm 2 mps 578 mmHg 63%
18:00 +10°C° 0 mm 2 mps 577 mmHg 72%
19:00 +9°C° 0 mm 2 mps 577 mmHg 81%
20:00 +8°C° 0 mm 1 mps 576 mmHg 86%
21:00 +6°C° 0 mm 1 mps 576 mmHg 91%
22:00 +3°C° 0 mm 0 mps 575 mmHg 96%
23:00 +3°C° 0 mm 0 mps 575 mmHg 95%

Tomorrow, 6 August, Thursday

Time Temperature Precipitation Wind Pressure Humidity
00:00 +4°C° 0 mm 1 mps 575 mmHg 95%
01:00 +4°C° 0 mm 1 mps 575 mmHg 94%
02:00 +4°C° 0 mm 1 mps 575 mmHg 93%
03:00 +4°C° 0 mm 1 mps 575 mmHg 92%
04:00 +2°C° 0 mm 0 mps 575 mmHg 91%
05:00 +5°C° 0 mm 0 mps 576 mmHg 85%
06:00 +7°C° 0 mm 0 mps 577 mmHg 80%
07:00 +9°C° 0 mm 0 mps 578 mmHg 74%
08:00 +11°C° 0 mm 0 mps 579 mmHg 65%
09:00 +13°C° 0 mm 0 mps 580 mmHg 56%
10:00 +15°C° 0 mm 0 mps 581 mmHg 47%
11:00 +16°C° 0 mm 1 mps 581 mmHg 45%
12:00 +18°C° 0 mm 1 mps 582 mmHg 43%
13:00 +19°C° 0 mm 1 mps 582 mmHg 41%
14:00 +18°C° 0 mm 2 mps 582 mmHg 44%
15:00 +18°C° 0 mm 2 mps 582 mmHg 47%
16:00 +18°C° 0 mm 2 mps 582 mmHg 50%
17:00 +16°C° 0.1 mm 2 mps 581 mmHg 61%
18:00 +14°C° 0.1 mm 2 mps 581 mmHg 72%
19:00 +13°C° 0.1 mm 1 mps 580 mmHg 84%
20:00 +11°C° 0 mm 1 mps 579 mmHg 88%
21:00 +9°C° 0 mm 1 mps 579 mmHg 92%
22:00 +7°C° 0 mm 0 mps 578 mmHg 96%
23:00 +6°C° 0 mm 0 mps 578 mmHg 96%

Day after tomorrow, 7 August, Friday

Time Temperature Precipitation Wind Pressure Humidity
00:00 +6°C° 0 mm 0 mps 578 mmHg 95%
01:00 +7°C° 0 mm 1 mps 578 mmHg 95%
02:00 +7°C° 0 mm 1 mps 578 mmHg 94%
03:00 +7°C° 0 mm 1 mps 578 mmHg 94%
04:00 +6°C° 0 mm 1 mps 577 mmHg 94%
05:00 +7°C° 0 mm 0 mps 578 mmHg 89%
06:00 +9°C° 0 mm 0 mps 580 mmHg 85%
07:00 +11°C° 0 mm 0 mps 581 mmHg 80%
08:00 +13°C° 0 mm 0 mps 582 mmHg 70%
09:00 +14°C° 0 mm 0 mps 582 mmHg 60%
10:00 +18°C° 0 mm 1 mps 583 mmHg 50%
11:00 +19°C° 0 mm 1 mps 584 mmHg 47%
12:00 +20°C° 0 mm 1 mps 584 mmHg 44%
13:00 +21°C° 0 mm 1 mps 584 mmHg 42%
14:00 +19°C° 0.1 mm 2 mps 584 mmHg 45%
15:00 +19°C° 0.1 mm 2 mps 583 mmHg 48%
16:00 +19°C° 0.1 mm 2 mps 583 mmHg 51%
17:00 +17°C° 0.3 mm 2 mps 583 mmHg 62%
18:00 +16°C° 0.3 mm 1 mps 582 mmHg 73%
19:00 +14°C° 0.3 mm 1 mps 581 mmHg 85%
20:00 +12°C° 0.1 mm 1 mps 580 mmHg 88%
21:00 +10°C° 0.1 mm 0 mps 580 mmHg 91%
22:00 +8°C° 0.1 mm 0 mps 579 mmHg 94%
23:00 +8°C° 0 mm 0 mps 579 mmHg 94%

8 August, Saturday

Time Temperature Precipitation Wind Pressure Humidity
00:00 +8°C° 0 mm 1 mps 579 mmHg 93%
01:00 +8°C° 0 mm 1 mps 579 mmHg 93%
02:00 +8°C° 0 mm 1 mps 578 mmHg 93%
03:00 +7°C° 0 mm 1 mps 578 mmHg 93%
04:00 +7°C° 0 mm 1 mps 578 mmHg 93%
05:00 +9°C° 0 mm 1 mps 579 mmHg 88%
06:00 +11°C° 0 mm 1 mps 580 mmHg 83%
07:00 +11°C° 0 mm 0 mps 581 mmHg 79%
08:00 +14°C° 0 mm 1 mps 581 mmHg 67%
09:00 +16°C° 0 mm 1 mps 582 mmHg 56%
10:00 +18°C° 0 mm 1 mps 583 mmHg 44%
11:00 +18°C° 0 mm 2 mps 583 mmHg 41%
12:00 +19°C° 0 mm 2 mps 583 mmHg 38%
13:00 +20°C° 0 mm 2 mps 583 mmHg 35%
14:00 +19°C° 0 mm 2 mps 583 mmHg 37%
15:00 +19°C° 0 mm 2 mps 582 mmHg 38%
16:00 +19°C° 0 mm 3 mps 582 mmHg 40%
17:00 +18°C° 0 mm 2 mps 582 mmHg 50%
18:00 +16°C° 0 mm 2 mps 581 mmHg 61%
19:00 +14°C° 0 mm 2 mps 580 mmHg 72%
20:00 +12°C° 0 mm 1 mps 579 mmHg 78%
21:00 +11°C° 0 mm 1 mps 579 mmHg 83%
22:00 +9°C° 0 mm 1 mps 578 mmHg 89%
23:00 +8°C° 0 mm 1 mps 578 mmHg 89%

9 August, Sunday

Time Temperature Precipitation Wind Pressure Humidity
00:00 +8°C° 0 mm 1 mps 577 mmHg 90%
01:00 +6°C° 0 mm 0 mps 577 mmHg 90%
02:00 +6°C° 0 mm 0 mps 577 mmHg 89%
03:00 +6°C° 0 mm 0 mps 576 mmHg 88%
04:00 +5°C° 0 mm 0 mps 576 mmHg 86%
05:00 +7°C° 0 mm 0 mps 577 mmHg 81%
06:00 +9°C° 0 mm 0 mps 578 mmHg 75%
07:00 +11°C° 0 mm 0 mps 579 mmHg 69%
08:00 +13°C° 0 mm 1 mps 580 mmHg 63%
09:00 +15°C° 0 mm 1 mps 580 mmHg 56%
10:00 +18°C° 0 mm 1 mps 581 mmHg 50%
11:00 +18°C° 0 mm 1 mps 581 mmHg 48%
12:00 +18°C° 0 mm 2 mps 581 mmHg 45%
13:00 +19°C° 0 mm 2 mps 581 mmHg 43%
14:00 +18°C° 0.3 mm 2 mps 581 mmHg 49%
15:00 +17°C° 0.3 mm 2 mps 580 mmHg 55%
16:00 +17°C° 0.3 mm 2 mps 580 mmHg 61%
17:00 +15°C° 0.5 mm 2 mps 579 mmHg 69%
18:00 +14°C° 0.5 mm 2 mps 578 mmHg 77%
19:00 +13°C° 0.5 mm 1 mps 578 mmHg 86%
20:00 +11°C° 0.1 mm 1 mps 577 mmHg 88%
21:00 +10°C° 0.1 mm 1 mps 576 mmHg 91%
22:00 +7°C° 0.1 mm 0 mps 576 mmHg 93%
23:00 +7°C° 0 mm 0 mps 575 mmHg 93%

10 August, Monday

Time Temperature Precipitation Wind Pressure Humidity
00:00 +7°C° 0 mm 0 mps 575 mmHg 92%
01:00 +6°C° 0 mm 0 mps 575 mmHg 92%
02:00 +6°C° 0 mm 0 mps 575 mmHg 91%
03:00 +7°C° 0 mm 1 mps 574 mmHg 90%
04:00 +7°C° 0 mm 1 mps 574 mmHg 89%
05:00 +8°C° 0 mm 1 mps 575 mmHg 84%
06:00 +9°C° 0 mm 0 mps 576 mmHg 79%
07:00 +11°C° 0 mm 0 mps 577 mmHg 74%
08:00 +13°C° 0 mm 0 mps 578 mmHg 65%
09:00 +14°C° 0 mm 0 mps 579 mmHg 56%
10:00 +18°C° 0 mm 1 mps 579 mmHg 48%
11:00 +19°C° 0 mm 1 mps 580 mmHg 44%
12:00 +20°C° 0 mm 1 mps 580 mmHg 40%
13:00 +19°C° 0 mm 2 mps 580 mmHg 36%
14:00 +19°C° 0.1 mm 2 mps 580 mmHg 38%
15:00 +19°C° 0.1 mm 2 mps 580 mmHg 41%
16:00 +18°C° 0.1 mm 2 mps 579 mmHg 43%
17:00 +17°C° 0.5 mm 2 mps 579 mmHg 56%
18:00 +15°C° 0.5 mm 1 mps 578 mmHg 69%
19:00 +13°C° 0.5 mm 1 mps 577 mmHg 81%
20:00 +12°C° 0.2 mm 1 mps 577 mmHg 83%
21:00 +9°C° 0.2 mm 0 mps 576 mmHg 85%
22:00 +8°C° 0.2 mm 0 mps 576 mmHg 86%
23:00 +8°C° 0 mm 0 mps 576 mmHg 86%
Show more